Home > Weather > Herat > Past weeks

Flag for Afghanistan Past Weather in Herat, Afghanistan — Yesterday and Last 2 Weeks

Now
90 °F

Clear.


Feels Like: 87 °F
Forecast: 72 / 105 °F
Wind: 7 mph from Northeast

Location: Herat Airport

Current Time: Jul 25, 2016 at 1:05:11 AM

Latest Report: Jul 24, 2016 at 9:25 PM


Visibility: 10 mi

Pressure: 29.77 "Hg (26.80 "Hg at 937m altitude)

Humidity: 29%

Dew Point: 54 °F

Location of HeratLocation

Past Weather in Herat — Graph

°F

Herat Temperature Yesterday

Maximum temperature yesterday: 104 °F (at 4:25 PM)
Minimum temperature yesterday: 77 °F (at 6:25 AM)
Average temperature yesterday: 94 °F

High & Low Weather Summary for the Past Weeks

 TemperatureHumidityPressure
High104 °F (Jul 20, 3:25 PM)88% (Jul 14, 6:25 AM)29.98 "Hg (Jul 14, 6:25 AM)
Low70 °F (Jul 14, 6:25 AM)11% (Jul 20, 2:25 PM)29.65 "Hg (Jul 23, 4:25 PM)
Average91 °F35%29.80 "Hg
* Reported Jul 9 9:25 PM — Jul 24 9:25 PM, Herat, Weather by CustomWeather, © 2016

Note: Actual official high and low records may vary slightly from our data, if they occured in-between our weather recording intervals... More about our weather records

Advertising

Herat Weather History for the Previous 24 Hours

Scroll right to see more
 ConditionsComfort  
Time TempWeatherWind HumidityBarometerVisibility
9:25 PM
Sun, Jul 24
90 °FClear.7 mph29%29.77 "Hg10 mi
8:25 PM91 °FClear.12 mph30%29.74 "Hg10 mi
7:25 PM95 °FSunny.8 mph26%29.71 "Hg10 mi
6:25 PM99 °FSunny.8 mph25%29.71 "Hg10 mi
5:25 PM102 °FSunny.16 mph21%29.68 "Hg10 mi
4:25 PM104 °FSunny.15 mph23%29.68 "Hg10 mi
3:25 PM100 °FSunny.13 mph22%29.71 "Hg10 mi
2:25 PM102 °FSunny.10 mph24%29.71 "Hg10 mi
1:25 PM100 °FSunny.5 mph25%29.74 "Hg10 mi
12:25 PM99 °FSunny.3 mph27%29.74 "Hg10 mi
11:25 AM97 °FSunny.5 mph30%29.74 "Hg10 mi
10:25 AM93 °FSunny.5 mph30%29.77 "Hg10 mi
9:25 AM91 °FSunny.2 mph30%29.77 "Hg10 mi
8:25 AM88 °FSunny.No wind31%29.77 "Hg10 mi
7:25 AM82 °FSunny.7 mph35%29.77 "Hg10 mi
6:25 AM77 °FSunny.2 mph36%29.74 "Hg10 mi
1:25 AM81 °FClear.10 mph30%29.71 "Hg10 mi
Weather by CustomWeather, © 2016

See weather overviewHow to use our weather pages